Wind_Speed
16 16 16 15 15 14 13 12 11 11 10 10 9 9 8 8 8 8 7 7 7 6 6 6 6 5 5 5 5 6 6 6 7 7 7 7 7 7 7 7 7 7 7
18 17 17 17 17 16 15 14 13 12 11 11 10 10 10 10 9 9 9 9 9 8 8 8 7 7 7 7 7 7 7 7 7 8 8 9 9 9 9 9 9 9 9
19 18 18 17 17 17 17 16 15 14 14 13 13 12 12 11 11 11 11 11 11 10 10 9 9 9 9 9 8 8 8 8 9 9 9 10 10 10 10 11 11 11 11
21 20 20 19 19 18 18 18 17 17 16 15 15 14 13 13 13 13 13 13 13 12 12 11 11 11 10 10 10 10 10 10 10 10 10 11 11 12 12 12 12 12 13
23 23 22 21 21 20 20 19 18 18 17 17 17 16 16 15 15 14 14 14 14 14 14 13 13 13 13 12 12 12 11 11 12 12 12 12 12 13 13 13 14 14 14
26 25 25 24 23 22 22 21 21 20 19 19 19 18 18 18 17 17 16 15 15 15 14 15 15 15 15 15 14 14 14 13 13 13 14 14 14 14 14 14 15 15 16
28 28 27 27 26 25 24 23 22 22 21 21 20 20 20 20 19 19 18 18 17 17 16 16 16 16 16 17 17 16 16 16 15 15 15 16 16 16 16 16 16 17 17
30 30 29 29 28 27 27 26 25 24 23 23 22 22 21 21 21 21 21 20 20 19 19 18 18 18 18 18 18 18 18 18 18 17 17 17 17 18 18 19 19 19 19
31 30 30 30 30 30 29 28 27 27 26 25 25 24 23 23 23 22 22 22 22 21 21 21 21 20 20 20 20 20 20 20 20 19 19 19 19 20 20 20 21 21 21
31 31 31 31 31 31 31 30 30 29 28 28 27 27 26 25 25 25 24 24 24 24 23 23 23 23 23 23 22 23 22 23 22 22 22 21 22 22 22 22 22 22 22
32 32 32 32 32 32 32 32 31 31 30 30 30 30 29 28 28 28 27 27 26 26 26 25 25 25 25 25 24 24 24 24 25 25 24 24 24 24 24 24 24 25 25
33 33 33 33 33 33 33 33 33 32 32 32 32 32 32 32 31 31 30 30 30 29 29 28 28 27 27 27 27 26 26 26 26 27 27 27 27 27 26 26 26 27 27
35 34 34 34 34 34 34 34 34 34 34 34 35 35 34 34 34 33 33 33 33 32 32 31 31 30 30 29 29 29 28 28 28 28 28 29 29 29 29 29 28 28 29
36 36 36 36 36 36 36 36 36 36 36 36 36 36 37 36 36 36 36 35 35 35 34 34 34 33 33 32 32 31 31 31 30 30 30 30 31 31 31 31 31 31 31
37 37 37 37 37 37 37 37 37 37 37 37 37 38 38 37 37 37 37 37 36 36 36 36 36 36 35 34 34 33 33 33 33 33 32 32 32 32 32 33 32 33 33
38 38 38 38 38 38 39 39 38 38 38 38 38 39 39 39 39 39 39 38 38 38 38 38 38 38 37 37 36 36 35 35 35 35 35 35 35 34 34 34 34 35 34
38 38 39 39 39 40 39 39 39 39 39 39 39 40 40 41 41 41 40 40 40 39 39 39 39 40 39 39 38 38 38 38 38 38 38 38 37 37 37 37 37 37 36
39 39 40 40 40 41 41 41 41 41 41 42 42 42 42 41 42 42 42 42 42 41 41 41 41 41 41 40 40 40 40 40 40 40 40 40 39 39 39 39 39 39 38
40 40 40 41 42 43 43 44 44 44 43 43 44 44 44 43 43 43 43 43 44 44 43 43 43 43 42 42 42 42 42 42 43 42 42 42 42 41 41 41 40 40 40
40 41 41 42 43 43 44 45 46 46 46 46 46 46 46 46 46 45 45 45 45 45 45 45 45 45 44 44 44 43 43 44 44 44 44 44 44 43 43 43 42 42 41
41 41 42 43 43 44 45 46 47 47 48 48 48 48 48 48 48 48 48 49 48 48 48 47 47 46 46 46 46 45 45 45 44 45 45 44 44 45 44 44 44 44 43
40 41 42 43 44 46 46 46 45 46 47 48 49 49 49 50 50 51 51 51 51 50 50 49 50 49 47 47 47 47 47 46 45 45 45 44 45 45 44 44 44 44 44
39 40 41 42 43 44 44 45 45 45 46 47 47 48 49 50 50 51 51 51 51 52 51 51 51 51 49 49 49 49 49 48 46 45 44 44 44 45 45 44 44 44 45
37 38 39 40 41 41 43 43 44 43 44 45 46 47 47 48 49 49 49 50 51 52 52 52 51 51 51 51 51 50 50 50 49 47 46 46 45 45 45 46 45 45 45
35 36 36 37 38 40 40 41 41 42 42 42 43 44 45 46 47 47 48 49 49 50 51 51 52 51 50 50 51 50 50 50 50 50 48 47 47 47 46 47 47 47 47
33 34 35 36 36 37 37 38 39 39 40 41 41 42 43 44 45 46 46 47 47 48 49 50 51 51 50 51 51 51 51 50 50 49 48 48 48 48 48 48 48 48 48
Wind_Direction
243 245 247 249 250 251 252 253 254 255 255 257 259 261 262 264 265 266 268 271 273 275 278 281 285 289 295 297 293 285 277 274 271 273 275 277 280 284 288 292 296 300 304
243 245 247 249 251 253 253 253 254 256 257 258 260 262 264 265 267 268 267 267 268 268 270 272 276 280 284 289 292 287 281 276 274 273 274 278 279 281 283 286 291 294 296
243 245 247 249 252 254 254 255 256 258 258 259 260 262 265 267 268 269 269 268 268 267 267 269 270 273 277 280 283 285 281 277 275 274 275 277 279 280 281 282 286 289 291
244 246 248 249 251 254 255 255 256 257 259 260 260 261 263 265 267 269 270 270 269 268 267 267 269 269 271 275 276 278 278 276 275 275 275 275 276 277 279 280 282 285 287
245 246 248 249 251 253 254 255 256 257 259 260 260 261 262 263 265 267 269 270 270 270 268 267 267 268 269 271 273 273 274 275 274 273 273 274 275 277 278 279 280 282 284
246 247 249 250 251 252 253 255 256 257 258 260 260 261 261 262 264 265 268 269 270 270 269 268 267 267 268 269 270 270 271 271 272 272 272 273 273 274 276 278 279 281 282
247 248 249 250 251 252 253 255 256 257 258 259 260 261 262 262 264 265 266 268 269 270 270 268 268 267 268 268 268 268 269 269 269 270 271 272 272 272 274 275 276 278 281
248 248 249 250 252 253 255 255 256 257 258 259 261 261 262 262 264 265 266 267 267 269 270 269 269 269 268 267 268 268 268 269 269 270 271 272 272 273 273 274 275 277 279
248 249 250 251 252 254 255 256 257 258 258 259 260 261 262 262 263 264 266 267 267 267 268 268 269 270 269 268 268 268 269 269 270 270 270 271 272 273 274 275 276 277 278
249 250 251 252 253 254 255 256 257 258 259 260 260 261 262 262 263 263 265 266 266 266 267 267 268 269 270 269 269 268 269 268 269 271 272 272 273 273 274 275 276 277 278
250 251 252 252 253 254 255 256 257 257 258 259 259 260 261 261 261 262 263 264 265 266 266 267 267 268 269 269 269 269 269 269 270 270 271 272 273 274 275 276 276 276 278
251 251 252 252 253 254 255 256 257 257 258 258 259 259 260 261 261 261 262 263 263 264 265 266 267 267 268 268 268 268 269 269 270 270 271 272 273 273 274 276 276 276 278
251 251 252 253 254 255 256 256 257 258 258 258 258 259 260 260 260 261 261 262 263 264 264 265 265 266 266 266 267 267 268 270 270 271 272 273 273 273 274 275 277 277 279
251 251 252 253 254 255 256 257 257 258 258 259 259 259 259 260 260 261 261 261 262 263 263 264 265 265 266 266 267 267 268 269 270 272 273 274 274 274 274 275 276 278 279
252 253 253 254 255 256 257 258 259 259 259 260 260 260 260 260 260 260 261 261 262 262 263 263 263 264 265 266 266 267 268 269 270 271 272 274 275 275 275 275 277 279 279
253 254 255 255 256 257 258 259 259 260 260 260 261 261 260 260 260 261 261 261 261 262 262 262 263 264 265 266 266 267 267 269 270 271 272 273 274 274 275 276 277 279 279
254 255 255 256 257 258 258 258 259 260 261 261 261 262 261 260 260 260 260 261 261 262 262 262 263 264 264 265 266 266 267 269 270 271 271 272 273 274 275 275 277 278 279
255 257 258 258 258 258 258 258 259 260 260 261 261 262 261 261 261 261 261 260 260 261 261 262 263 263 264 265 265 266 267 269 270 270 271 272 273 274 274 274 275 277 278
257 258 259 259 259 259 259 260 260 260 260 261 261 261 262 262 262 262 262 261 260 261 261 262 263 263 264 265 267 268 268 269 269 270 270 271 272 273 273 274 275 276 277
259 259 260 260 260 260 260 260 260 260 260 260 261 261 261 262 262 262 262 261 261 261 261 262 263 263 263 265 267 268 269 269 269 269 270 271 272 272 272 273 274 275 276
260 261 261 261 261 261 261 261 261 262 262 261 261 262 261 262 262 262 262 262 261 260 261 262 262 263 263 264 266 267 268 268 268 269 270 270 271 272 273 273 274 275 276
261 262 262 263 263 263 263 263 263 263 262 262 262 262 262 262 262 262 262 262 261 260 260 261 261 263 264 264 266 267 268 268 268 269 268 270 271 272 273 273 273 274 276
263 264 265 265 265 265 264 264 265 265 264 263 262 262 262 262 261 261 261 261 261 261 260 260 261 262 264 265 266 266 267 268 268 268 269 269 271 273 273 274 274 275 276
266 266 266 267 266 266 266 266 266 265 265 264 263 263 263 262 261 260 261 261 261 261 260 260 260 261 262 263 264 265 267 266 267 268 269 269 270 272 273 273 275 276 276
268 269 269 270 269 268 267 266 266 266 266 265 265 264 263 263 262 261 262 262 262 262 260 259 260 261 262 263 263 264 266 267 268 268 267 267 268 270 271 273 275 276 275
271 271 271 271 271 269 268 267 267 267 266 266 266 266 265 264 262 262 263 264 263 263 261 259 259 259 261 262 263 264 265 267 268 267 267 267 268 269 271 274 275 277 276
Height
5857 5858 5860 5861 5862 5863 5864 5865 5866 5867 5868 5869 5869 5870 5870 5871 5872 5872 5873 5874 5874 5874 5875 5875 5876 5876 5876 5876 5877 5877 5877 5877 5878 5878 5879 5879 5879 5879 5879 5879 5879 5878 5878
5854 5856 5857 5858 5859 5861 5862 5863 5864 5865 5866 5867 5867 5868 5869 5870 5870 5871 5871 5872 5872 5873 5873 5874 5874 5874 5875 5875 5875 5875 5876 5876 5876 5877 5877 5877 5877 5878 5878 5878 5877 5877 5877
5851 5853 5854 5856 5857 5858 5859 5861 5862 5863 5864 5864 5865 5866 5867 5868 5868 5869 5870 5870 5871 5871 5872 5872 5872 5873 5873 5873 5874 5874 5874 5874 5875 5875 5875 5875 5876 5876 5876 5876 5876 5875 5875
5848 5850 5851 5853 5854 5855 5856 5858 5859 5860 5861 5862 5863 5864 5864 5865 5866 5867 5867 5868 5868 5869 5869 5870 5870 5871 5871 5871 5872 5872 5872 5873 5873 5873 5873 5873 5873 5874 5874 5874 5874 5873 5873
5844 5846 5848 5849 5851 5852 5853 5854 5856 5857 5858 5859 5860 5861 5862 5862 5863 5864 5864 5865 5866 5867 5867 5868 5868 5868 5869 5869 5869 5870 5870 5870 5870 5871 5871 5871 5871 5871 5871 5871 5871 5871 5870
5840 5842 5844 5845 5847 5848 5849 5851 5852 5853 5855 5856 5857 5858 5858 5859 5860 5861 5862 5862 5863 5864 5864 5865 5865 5866 5866 5866 5867 5867 5867 5868 5868 5868 5868 5868 5868 5868 5868 5868 5868 5868 5868
5836 5838 5839 5841 5843 5844 5846 5847 5848 5850 5851 5852 5853 5854 5855 5856 5857 5858 5858 5859 5860 5861 5861 5862 5862 5862 5863 5863 5863 5864 5864 5865 5865 5865 5865 5865 5865 5865 5865 5865 5865 5865 5864
5831 5833 5835 5836 5838 5840 5841 5843 5844 5846 5847 5848 5849 5850 5851 5852 5853 5854 5855 5855 5856 5857 5858 5858 5859 5859 5859 5859 5860 5860 5861 5861 5861 5861 5862 5862 5862 5862 5862 5862 5861 5861 5861
5825 5827 5829 5831 5833 5835 5836 5838 5840 5841 5842 5844 5845 5846 5847 5848 5849 5850 5850 5851 5852 5853 5854 5854 5855 5855 5855 5856 5856 5856 5857 5857 5857 5858 5858 5858 5858 5858 5858 5858 5857 5857 5857
5820 5822 5824 5826 5828 5829 5831 5833 5834 5836 5837 5839 5840 5841 5842 5843 5844 5845 5846 5847 5848 5848 5849 5850 5850 5851 5851 5852 5852 5852 5852 5853 5853 5853 5854 5854 5853 5853 5853 5853 5853 5853 5852
5814 5816 5818 5820 5822 5824 5825 5827 5829 5830 5832 5833 5834 5835 5837 5838 5839 5840 5841 5842 5842 5843 5844 5845 5845 5846 5846 5847 5847 5847 5848 5848 5848 5849 5849 5849 5849 5849 5849 5848 5848 5848 5847
5808 5810 5812 5814 5816 5817 5819 5821 5822 5824 5825 5826 5828 5829 5830 5832 5833 5834 5835 5836 5836 5837 5838 5839 5840 5840 5841 5841 5842 5842 5843 5843 5843 5843 5844 5844 5844 5843 5843 5843 5843 5843 5842
5801 5803 5805 5807 5809 5811 5812 5814 5815 5817 5818 5820 5821 5822 5823 5825 5826 5827 5828 5829 5830 5831 5832 5833 5834 5834 5835 5835 5836 5837 5837 5838 5838 5838 5838 5838 5838 5838 5838 5838 5837 5837 5836
5795 5797 5799 5800 5802 5804 5805 5807 5808 5810 5811 5812 5813 5814 5816 5817 5819 5820 5821 5822 5823 5824 5825 5826 5827 5828 5828 5829 5829 5830 5831 5831 5832 5832 5832 5832 5832 5831 5831 5831 5831 5831 5830
5788 5790 5792 5793 5795 5797 5798 5800 5801 5802 5803 5804 5806 5807 5808 5809 5811 5812 5813 5814 5815 5816 5817 5818 5819 5820 5821 5822 5822 5823 5824 5824 5825 5825 5825 5825 5825 5825 5825 5825 5824 5824 5824
5780 5782 5784 5786 5787 5789 5790 5792 5793 5794 5795 5796 5798 5799 5800 5801 5802 5804 5805 5806 5807 5808 5809 5811 5811 5812 5813 5814 5815 5815 5816 5817 5817 5818 5818 5818 5818 5818 5818 5818 5817 5817 5816
5773 5774 5776 5778 5779 5781 5782 5784 5785 5786 5787 5788 5789 5790 5791 5792 5794 5795 5796 5798 5799 5800 5801 5802 5803 5804 5805 5806 5807 5807 5808 5809 5809 5809 5810 5810 5810 5810 5810 5810 5809 5809 5809
5765 5767 5768 5769 5771 5772 5773 5775 5776 5777 5778 5779 5780 5781 5782 5783 5784 5786 5787 5789 5790 5791 5792 5793 5794 5795 5796 5797 5798 5799 5799 5800 5800 5801 5801 5801 5801 5801 5801 5801 5801 5801 5800
5758 5759 5760 5761 5762 5763 5764 5765 5766 5768 5769 5770 5771 5772 5772 5773 5775 5776 5778 5779 5780 5781 5783 5784 5785 5786 5787 5788 5788 5790 5790 5791 5791 5791 5792 5792 5792 5792 5792 5792 5792 5792 5792
5749 5750 5751 5752 5753 5753 5754 5755 5756 5757 5759 5760 5761 5762 5762 5763 5765 5766 5767 5769 5770 5771 5773 5774 5775 5776 5777 5778 5778 5780 5780 5781 5781 5782 5782 5783 5783 5783 5783 5783 5783 5783 5782
5741 5741 5742 5743 5743 5743 5744 5745 5746 5747 5747 5748 5749 5751 5752 5753 5754 5755 5756 5758 5759 5761 5762 5763 5764 5765 5767 5767 5768 5769 5770 5770 5771 5772 5772 5773 5773 5773 5773 5773 5773 5772 5772
5732 5733 5733 5733 5733 5733 5734 5734 5735 5735 5736 5737 5737 5739 5740 5741 5742 5743 5744 5746 5747 5749 5751 5752 5753 5754 5756 5756 5757 5758 5759 5761 5761 5762 5762 5762 5763 5763 5763 5763 5762 5762 5762
5724 5724 5724 5723 5723 5723 5723 5723 5724 5724 5724 5725 5726 5726 5727 5728 5729 5731 5732 5733 5734 5736 5738 5740 5741 5743 5744 5745 5746 5747 5748 5750 5751 5752 5752 5752 5753 5753 5753 5752 5752 5751 5751
5715 5715 5715 5714 5714 5713 5713 5713 5713 5713 5714 5714 5714 5714 5715 5716 5717 5718 5720 5721 5723 5724 5726 5728 5729 5731 5732 5733 5734 5735 5737 5738 5739 5741 5742 5742 5742 5742 5742 5742 5741 5740 5740
5708 5707 5706 5705 5704 5703 5703 5703 5703 5703 5703 5703 5703 5704 5704 5704 5705 5707 5708 5709 5711 5712 5714 5715 5717 5719 5720 5721 5722 5724 5724 5725 5727 5728 5730 5731 5731 5731 5731 5730 5730 5729 5728
5700 5699 5698 5697 5695 5694 5694 5693 5693 5693 5693 5694 5694 5694 5694 5694 5695 5696 5697 5698 5699 5700 5702 5703 5705 5707 5708 5709 5710 5712 5713 5714 5715 5716 5718 5719 5720 5720 5719 5718 5718 5717 5716